Location: Spruce Knob
(38.6995°N, 79.5330°W)
Time: 19:54:00
(UTC-04:00)

A-11 Canister half - Pass Details

Date: 31 January 2022
Orbit: 1513 x 1686 km, 47.2° (Epoch: 26 May)

Event Time Altitude Azimuth Distance (km) Brightness Sun altitude
Rises 17:55:31 0° 277° (W) 4,766 12.9 -3.9°
Reaches altitude 10° 17:58:47 10° 283° (WNW) 3,758 12.1 -4.5°
Maximum altitude 18:07:57 51° 358° (N) 1,870 9.4 -6.2°
Drops below altitude 10° 18:16:54 10° 72° (ENE) 3,674 10.3 -7.9°
Enters shadow 18:17:12 - 73° (ENE) 3,769 10.3 -7.9°
Sets 18:20:04 0° 78° (ENE) 4,652 - -8.4°
